CW5920 Weather Reports


time (UTC)temp
F
wind
direction
speed
knots
gust
knots
rain 1hr
in
rain 24hr
in
rain mn
in
humidity
%
barometer
mb
20260901221017 96 90 3.5 7.0 0.00 0.00 0.00 42 1013.2
20260901220017 97 90 5.2 9.6 0.00 0.00 0.00 41 1013.3
20260901215037 98 90 7.0 11.3 0.00 0.00 0.00 39 1013.4
20260901214017 99 135 3.5 7.8 0.00 0.00 0.00 39 1013.4
20260901213017 98 68 5.2 10.4 0.00 0.00 0.00 40 1013.6
20260901212017 98 135 4.3 7.8 0.00 0.00 0.00 40 1013.7
20260901211017 98 113 4.3 9.6 0.00 0.00 0.00 39 1013.7
20260901210017 98 90 4.3 8.7 0.00 0.00 0.00 40 1014.0
20260901205017 99 113 7.8 11.3 0.00 0.00 0.00 39 1014.1
20260901204017 99 68 4.3 8.7 0.00 0.00 0.00 39 1014.2
20260901203017 99 90 3.5 8.7 0.00 0.00 0.00 40 1014.2
20260901202017 99 68 6.1 11.3 0.00 0.00 0.00 40 1014.3
20260901201057 99 68 6.1 11.3 0.00 0.00 0.00 40 1014.4
20260901200017 98 90 1.7 6.1 0.00 0.00 0.00 39 1014.4
20260901195017 98 113 7.0 12.2 0.00 0.00 0.00 41 1014.5
20260901194017 96 68 1.7 6.1 0.00 0.00 0.00 44 1014.7
20260901193017 97 90 4.3 10.4 0.00 0.00 0.00 43 1014.8
20260901192017 97 113 0.9 5.2 0.00 0.00 0.00 41 1014.9
20260901191017 98 135 4.3 8.7 0.00 0.00 0.00 40 1015.1
20260901190017 98 90 3.5 7.0 0.00 0.00 0.00 40 1015.2
20260901185017 98 45 4.3 11.3 0.00 0.00 0.00 41 1015.3
20260901184017 97 68 1.7 6.1 0.00 0.00 0.00 43 1015.6
20260901183017 97 90 7.0 12.2 0.00 0.00 0.00 43 1015.9
20260901182017 98 113 2.6 7.8 0.00 0.00 0.00 40 1016.0
20260901181017 97 135 2.6 8.7 0.00 0.00 0.00 44 1016.0
20260901180017 96 0.0 0.0 0.00 0.00 0.00 44 1016.1
20260901175017 97 68 5.2 8.7 0.00 0.00 0.00 44 1016.3
20260901174037 98 158 1.7 7.8 0.00 0.00 0.00 43 1016.5
20260901173017 97 68 2.6 7.0 0.00 0.00 0.00 43 1016.6
20260901172017 97 90 3.5 8.7 0.00 0.00 0.00 44 1016.7
20260901171037 97 158 2.6 7.8 0.00 0.00 0.00 45 1016.8
20260901170017 96 113 5.2 10.4 0.00 0.00 0.00 45 1016.9
20260901165017 96 90 4.3 8.7 0.00 0.00 0.00 45 1017.1
20260901164017 96 135 3.5 10.4 0.00 0.00 0.00 46 1017.3
20260901163017 95 135 3.5 10.4 0.00 0.00 0.00 47 1017.2
20260901162017 95 113 3.5 10.4 0.00 0.00 0.00 48 1017.2
20260901161017 95 0.0 3.5 0.00 0.00 0.00 49 1017.2
20260901160017 94 158 2.6 6.1 0.00 0.00 0.00 49 1017.1
20260901155017 94 180 1.7 7.0 0.00 0.00 0.00 50 1017.2
20260901154037 93 135 2.6 7.8 0.00 0.00 0.00 51 1017.2
20260901153037 93 158 2.6 8.7 0.00 0.00 0.00 52 1017.2
20260901152037 92 158 0.9 4.3 0.00 0.00 0.00 53 1017.0
20260901151017 91 135 1.7 7.0 0.00 0.00 0.00 54 1017.1
20260901150017 90 158 2.6 7.8 0.00 0.00 0.00 55 1017.1
20260901145017 90 158 0.9 6.1 0.00 0.00 0.00 57 1017.2
20260901144017 89 0.0 0.9 0.00 0.00 0.00 58 1017.3
20260901143017 88 0.0 0.0 0.00 0.00 0.00 60 1017.3
20260901142017 87 0.0 3.5 0.00 0.00 0.00 62 1017.3
20260901141017 86 135 0.9 3.5 0.00 0.00 0.00 65 1017.4
20260901140017 85 113 0.9 6.1 0.00 0.00 0.00 68 1017.3
20260901135017 84 113 0.9 2.6 0.00 0.00 0.00 70 1017.3
20260901134037 83 113 2.6 3.5 0.00 0.00 0.00 71 1017.4
20260901133017 82 135 2.6 6.1 0.00 0.00 0.00 72 1017.3
20260901132037 81 135 1.7 3.5 0.00 0.00 0.00 73 1017.1
20260901131017 80 113 0.9 1.7 0.00 0.00 0.00 75 1017.1
20260901130017 79 158 0.9 3.5 0.00 0.00 0.00 76 1016.9
20260901125037 79 158 0.9 3.5 0.00 0.00 0.00 76 1016.9
20260901124036 79 0.0 0.0 0.00 0.00 0.00 76 1016.9
20260901123017 78 0.0 0.0 0.00 0.00 0.00 75 1016.6
20260901122017 79 0.0 0.0 0.00 0.00 0.00 75 1016.4
20260901121016 79 0.0 0.0 0.00 0.00 0.00 74 1016.4
20260901120017 79 0.0 0.0 0.00 0.00 0.00 74 1016.4
20260901115017 79 0.0 0.0 0.00 0.00 0.00 73 1016.2
20260901114037 80 0.0 0.0 0.00 0.00 0.00 73 1016.3
20260901113017 80 0.0 0.0 0.00 0.00 0.00 73 1016.2
20260901112017 80 0.0 1.7 0.00 0.00 0.00 72 1016.1
20260901111016 80 0.0 0.0 0.00 0.00 0.00 72 1016.1
20260901110016 80 0.0 1.7 0.00 0.00 0.00 71 1016.0
20260901105016 81 158 0.9 5.2 0.00 0.00 0.00 71 1016.0
20260901104017 81 0.0 4.3 0.00 0.00 0.00 70 1016.0
20260901103016 81 158 0.9 5.2 0.00 0.00 0.00 70 1016.0
20260901102017 81 158 0.9 5.2 0.00 0.00 0.00 70 1016.0
20260901101036 81 158 0.9 6.1 0.00 0.00 0.00 70 1015.9
20260901100016 81 158 0.9 5.2 0.00 0.00 0.00 69 1015.9
20260901095017 82 158 0.9 4.3 0.00 0.00 0.00 69 1016.1
20260901094036 82 158 0.9 3.5 0.00 0.00 0.00 69 1016.2
20260901093017 82 158 0.9 5.2 0.00 0.00 0.00 68 1016.2
20260901092016 82 0.0 1.7 0.00 0.00 0.00 68 1016.2
20260901091016 82 158 0.9 8.7 0.00 0.00 0.00 67 1016.4
20260901090037 82 135 3.5 7.8 0.00 0.00 0.00 66 1016.3
20260901085016 82 158 3.5 8.7 0.00 0.00 0.00 66 1016.3
20260901084015 83 158 2.6 7.0 0.00 0.00 0.00 65 1016.4
20260901083015 83 135 3.5 7.8 0.00 0.00 0.00 64 1016.3
20260901082016 83 135 6.1 10.4 0.00 0.00 0.00 64 1016.3
20260901081016 83 158 4.3 10.4 0.00 0.00 0.00 63 1016.2
20260901080015 83 135 5.2 12.2 0.00 0.00 0.00 63 1016.1
20260901075015 83 158 5.2 11.3 0.00 0.00 0.00 62 1016.1
20260901074016 82 158 4.3 7.0 0.00 0.00 0.00 62 1016.1
20260901073016 82 135 2.6 5.2 0.00 0.00 0.00 61 1016.0
20260901072016 82 113 2.6 4.3 0.00 0.00 0.00 59 1016.0
20260901071035 82 113 2.6 5.2 0.00 0.00 0.00 57 1015.9
20260901070015 82 135 3.5 6.1 0.00 0.00 0.00 56 1015.9
20260901065015 82 113 1.7 3.5 0.00 0.00 0.00 55 1015.7
20260901064016 83 113 0.9 2.6 0.00 0.00 0.00 53 1015.6
20260901063055 83 113 1.7 3.5 0.00 0.00 0.00 52 1015.6
20260901062015 84 113 2.6 5.2 0.00 0.00 0.00 52 1015.5
20260901061035 84 113 3.5 6.1 0.00 0.00 0.00 51 1015.5
20260901060016 84 135 1.7 6.1 0.00 0.00 0.00 51 1015.5
20260901055016 84 135 0.9 2.6 0.00 0.00 0.00 50 1015.1
20260901054015 84 0.0 1.7 0.00 0.00 0.00 50 1015.1
20260901053015 84 135 0.9 3.5 0.00 0.00 0.00 50 1014.9
20260901052015 84 113 0.9 3.5 0.00 0.00 0.00 51 1014.9
20260901051015 84 113 0.9 1.7 0.00 0.00 0.00 52 1014.8
20260901050036 84 113 0.9 3.5 0.00 0.00 0.00 52 1014.8
20260901045015 84 113 1.7 3.5 0.00 0.00 0.00 52 1014.9
20260901044015 84 113 0.9 2.6 0.00 0.00 0.00 52 1014.8
20260901043015 84 113 0.9 2.6 0.00 0.00 0.00 52 1014.7
20260901042015 85 113 0.9 1.7 0.00 0.00 0.00 51 1014.8
20260901041016 85 113 1.7 3.5 0.00 0.00 0.00 51 1014.8
20260901040016 85 113 0.9 2.6 0.00 0.00 0.00 51 1014.7
20260901035015 85 113 0.9 2.6 0.00 0.00 0.00 51 1014.8
20260901034016 85 135 1.7 4.3 0.00 0.00 0.00 51 1014.7
20260901033035 85 0.0 2.6 0.00 0.00 0.00 51 1014.7
20260901032016 86 113 1.7 3.5 0.00 0.00 0.00 50 1014.7
20260901030015 86 113 1.7 2.6 0.00 0.00 0.00 48 1014.5
20260901025015 87 113 1.7 2.6 0.00 0.00 0.00 48 1014.4
20260901024015 87 113 0.9 2.6 0.00 0.00 0.00 47 1014.2
20260901023016 88 113 1.7 2.6 0.00 0.00 0.00 47 1014.2
20260901022015 88 113 0.9 1.7 0.00 0.00 0.00 46 1014.1
20260901021015 89 113 1.7 2.6 0.00 0.00 0.00 45 1013.9
20260901020015 89 113 0.9 2.6 0.00 0.00 0.00 44 1013.9
20260901015015 90 0.0 0.0 0.00 0.00 0.00 44 1013.6
20260901014015 90 113 1.7 2.6 0.00 0.00 0.00 43 1013.5
20260901013015 91 113 1.7 3.5 0.00 0.00 0.00 42 1013.5
20260901012016 92 113 2.6 6.1 0.00 0.00 0.00 41 1013.4
20260901011015 92 113 1.7 3.5 0.00 0.00 0.00 41 1013.4
20260901010015 93 113 1.7 5.2 0.00 0.00 0.00 40 1013.3
20260901005015 94 113 2.6 5.2 0.00 0.00 0.00 39 1013.3
20260901004015 94 113 5.2 8.7 0.00 0.00 0.00 38 1013.3
20260901003015 95 113 6.1 9.6 0.00 0.00 0.00 38 1013.2
20260901002015 95 113 5.2 9.6 0.00 0.00 0.00 37 1013.3
20260901001015 96 113 7.0 9.6 0.00 0.00 0.00 36 1013.3
20260901000015 96 113 6.1 11.3 0.00 0.00 0.00 36 1013.3
20260831235015 97 113 7.8 13.9 0.00 0.00 0.00 36 1013.3
20260831234016 97 135 3.5 7.0 0.00 0.00 0.00 35 1013.4
20260831233015 97 113 4.3 10.4 0.00 0.00 0.00 35 1013.3
20260831232017 97 158 3.5 7.0 0.00 0.00 0.00 34 1013.4
20260831231017 98 113 7.0 10.4 0.00 0.00 0.00 33 1013.4
20260831230017 98 113 7.0 12.2 0.00 0.00 0.00 34 1013.3
20260831225017 98 113 3.5 7.8 0.00 0.00 0.00 33 1013.4
20260831224017 99 113 6.1 10.4 0.00 0.00 0.00 33 1013.5
20260831223017 99 113 10.4 14.8 0.00 0.00 0.00 32 1013.5
20260831222017 98 158 5.2 8.7 0.00 0.00 0.00 32 1013.5